User: anonymous   Login
Location: Broadview
(41.2178°N, 81.6385°W)
Time: 01:34:51
(UTC+00:00)
Language:

Hubble Space Telescope - Orbit

View from above orbital plane
View from above orbital plane
View from above satellite
View from above satellite

Ground track
Ground track

The orbit data is extracted from the following two-line orbital elements,

1 20580U 90037B   22343.53347594  .00003077  00000-0  16709-3 0  9991
2 20580  28.4705  88.0758 0002802 122.4847 303.5520 15.11371065592722
Epoch (UTC): 09 December 2022 12:48:12
Eccentricity: 0.0002802
inclination: 28.4705°
perigee height: 530 km
apogee height: 534 km
right ascension of ascending node: 88.0758°
argument of perigee: 122.4847°
revolutions per day: 15.11371065
mean anomaly at epoch: 303.5520°
orbit number at epoch: 59272

The dashed part of the orbit path shows where the satellite is in the earth's shadow,  

DLR